Location: Unspecified
(50.7693°N, 0.0000°E)
Time: 19:03:39
(UTC+00:00)

Vanguard 1 Rocket - Pass Details

Date: 27 June 2019
Orbit: 651 x 4225 km, 34.3° (Epoch: 20 July)

Event Time Altitude Azimuth Distance (km) Brightness Sun altitude
Rises 13:49:42 0° 205° (SSW) 8,454 12.8 55.7°
Reaches altitude 10° 13:57:36 10° 195° (SSW) 7,264 12.6 54.7°
Maximum altitude 14:14:03 25° 151° (SSE) 5,146 11.6 52.7°
Drops below altitude 10° 14:25:48 10° 105° (ESE) 5,151 11.1 51.1°
Sets 14:29:59 0° 92° (E) 5,656 11.1 50.5°
